Location: Innsbruck
(47.2657°N, 11.3914°E)
Time: 00:57:16
(UTC+02:00)

Nauka - Pass Details

Date: 25 September 2021
Orbit: 418 x 423 km, 51.6° (Epoch: 14 October)

Event Time Altitude Azimuth Distance (km) Brightness Sun altitude
Rises 21:43:37 0° 292° (WNW) 2,367 ? -26.5°
Reaches altitude 10° 21:45:46 10° 298° (WNW) 1,503 ? -26.8°
Enters shadow 21:47:19 24° 309° (NW) 921 ? -27.0°
